Regional Weather Roundup
Issued by NWS Bismarck, ND

Home | Current Version | Previous Version | Text Only | Print | Product List | Glossary On
Versions: 1 2 3 4 5 6 7 8 9 10 11 12 13 14 15 16 17 18 19 20 21 22 23 24 25 26 27 28 29 30 31 32 33 34 35 36 37 38 39 40 41 42 43 44 45 46 47 48 49 50
000
ASUS43 KBIS 271810
RWRBIS

NWR BROADCAST TEXT
NATIONAL WEATHER SERVICE BISMARCK ND
100 PM CDT WED MAY 27 2015

NOTE: "FAIR" INDICATES FEW OR NO CLOUDS BELOW 12,000 FEET WITH NO
SIGNIFICANT WEATHER AND/OR OBSTRUCTIONS TO VISIBILITY.


CITY           SKY/WX    TMP DP  RH WIND       PRES   REMARKS
WILLISTON      CLOUDY    78  46  32 S6        29.91F
MINOT          FAIR      75  50  41 E7        29.96S
MINOT AFB      FAIR      75  52  45 E8        29.96S
BISMARCK       MOSUNNY   79  48  33 S10       29.97S
DICKINSON      PTSUNNY   76  49  38 S15G22    29.92F
GARRISON       NOT AVBL
HETTINGER ARPT PTSUNNY   74  52  46 SE16G23   29.96F
JAMESTOWN      FAIR      78  50  37 VRB5      29.96S
BEACH          CLOUDY    66  52  59 SE3       29.93S
CARRINGTON     FAIR      77  50  38 NW6       29.97S
CROSBY         FAIR      72  50  46 E16G22    29.96S
HARVEY         FAIR      75  50  41 E5        29.97S
HAZEN          FAIR      77  45  31 S12       29.95F
LINTON         FAIR      77  54  44 S14       29.98F
MANDAN         FAIR      77  50  38 S9G17     29.98F
OAKES            N/A     77  57  50 SW6       29.98R
STANLEY        FAIR      75  48  38 E10       29.97S
WATFORD CITY   FAIR      77  46  33 SE13G23   29.90F
$$

CITY           SKY/WX    TMP DP  RH WIND       PRES   REMARKS
GRAND FORKS    FAIR      69  49  48 N9        29.97R
GRAND FORKS AF FAIR      68  49  50 NE13G20   29.98S
DEVILS LAKE    FAIR      70  48  46 NE7       29.98S
FARGO          FAIR      77  55  46 VRB5      29.95S
CANDO          FAIR      68  46  45 NE6       30.01R
CAVALIER       FAIR      66  45  45 N13G20    30.00R
GRAFTON        FAIR      66  46  48 N12G17    30.00S
LANGDON        FAIR      66  46  48 NE12      30.02R
ROLLA          FAIR      63  45  51 NE8       30.04R
WALHALLA         N/A     64  45  48 MISG      30.01S
$$

CITY           SKY/WX    TMP DP  RH WIND       PRES   REMARKS
ABERDEEN       MOSUNNY   83  48  29 CALM      29.98S
MOBRIDGE       MOSUNNY   79  50  36 S10       29.96F
BUFFALO          N/A     71  53  52 SE7       29.89F
RAPID CITY     PTSUNNY   71  55  56 S15G22    29.98F
GLASGOW        CLOUDY    66  53  63 E14       29.93F
SIDNEY         PTSUNNY   75  50  41 CALM      29.92S
WOLF POINT     LGT RAIN  59  56  89 N7        29.94F FOG
GLENDIVE       PTSUNNY   72  54  53 N16       29.92F
MILES CITY     LGT RAIN  57  55  93 NW9       29.98R FOG
BAKER          PTSUNNY   76  50  40 S16G26    29.94F
$$

CITY           SKY/WX    TMP DP  RH WIND       PRES   REMARKS
BILLINGS       PTSUNNY   65  50  58 CALM      29.99S THUNDER
GREAT FALLS    CLOUDY    54  50  86 W9        30.03S
REGINA         PTSUNNY   66  50  55 E12G18    29.99S
ESTEVAN        CLOUDY    68  48  49 E17       29.97S
$$



USA.gov is the U.S. government's official web portal to all federal, state and local government web resources and services.